Charleroi, Belgium

7:07 AM CEST on August 25, 2016 (GMT +0200)
Brussels South

Weather History for EBCI - March, 2013

Change the Weather History Date:

Wednesday, March 6, 2013

  Actual Average Record
Temperature  
Mean Temperature 54 °F -  
Max Temperature 61 °F 50 °F 61 °F (2013)
Min Temperature 46 °F 37 °F 21 °F (2005)
Degree Days  
Heating Degree Days 12    
Growing Degree Days 4 (Base 50)    
Moisture  
Dew Point 33 °F    
Average Humidity 47    
Maximum Humidity 71    
Minimum Humidity 19    
Precipitation  
Precipitation 0.00 in - - ()
Sea Level Pressure  
Sea Level Pressure 29.59 in    
Wind  
Wind Speed 5 mph ()    
Max Wind Speed 10 mph    
Max Gust Speed -    
Visibility 9.8 miles    
Events      
Averages and records for this station are not official NWS values.
T = Trace of Precipitation, MM = Missing Value Source: Averaged Metar Reports

Daily Weather History Graph

Daily Weather History Graph

Search for Another Location

Airport or City:

Trip Planner

Search our weather history database for the weather conditions in past years. The results will help you decide how hot, cold, wet, or windy it might be!

Date:

Astronomy

Mar. 06, 2013 Rise Set
Actual Time 7:15 AM CET 6:32 PM CET
Civil Twilight 6:42 AM CET 7:04 PM CET
Nautical Twilight 6:05 AM CET 7:42 PM CET
Astronomical Twilight 5:26 AM CET 8:21 PM CET
Moon 3:37 AM CET (3/6) 12:30 PM CET (3/6)
Length of Visible Light 12h 22m
Length of Day
11h 16m
Waning Crescent, 33% of the Moon is Illuminated
Mar 6
Waning Crescent
Mar 11
New
Mar 19
First Quarter
Mar 27
Full
Apr 3
Last Quarter

Hourly Weather History & Observations

Time (CET) Temp. Windchill Dew Point Humidity Pressure Visibility Wind Dir Wind Speed Gust Speed Precip Events Conditions
12:20 AM 48.2 °F - 32.0 °F 54% 29.68 in - SE 5.8 mph - N/A   Clear
12:50 AM 48.2 °F - 32.0 °F 54% 29.68 in - SSE 3.5 mph - N/A   Clear
1:00 AM 48 °F - 33 °F 44% 29.69 in 11 mi SSE 4.5 mph - -   Scattered Clouds
1:20 AM 48.2 °F - 32.0 °F 54% 29.68 in - SE 5.8 mph - N/A   Clear
1:50 AM 48.2 °F - 32.0 °F 54% 29.65 in - SE 4.6 mph - N/A   Clear
2:20 AM 48.2 °F - 32.0 °F 54% 29.65 in - SE 5.8 mph - N/A   Clear
2:50 AM 48.2 °F - 32.0 °F 54% 29.65 in - SE 5.8 mph - N/A   Clear
3:20 AM 48.2 °F - 32.0 °F 54% 29.62 in - SE 5.8 mph - N/A   Clear
3:50 AM 48.2 °F - 32.0 °F 54% 29.62 in - SE 4.6 mph - N/A   Clear
4:00 AM 48 °F - 33 °F 43% 29.65 in 9 mi SE 4.5 mph - -   Scattered Clouds
4:20 AM 48.2 °F - 32.0 °F 54% 29.62 in - SSE 5.8 mph - N/A   Clear
4:50 AM 48.2 °F - 32.0 °F 54% 29.62 in - SSE 5.8 mph - N/A   Clear
6:20 AM 48.2 °F - 32.0 °F 54% 29.62 in - SSE 4.6 mph - N/A   Clear
6:50 AM 48.2 °F - 32.0 °F 54% 29.62 in - South 4.6 mph - N/A   Clear
7:00 AM 49 °F - 32 °F 40% 29.63 in 9 mi South 4.5 mph - -   Partly Cloudy
7:20 AM 48.2 °F - 32.0 °F 54% 29.62 in - SSE 3.5 mph - N/A   Clear
7:50 AM 50.0 °F - 32.0 °F 50% 29.62 in - South 4.6 mph - N/A   Clear
8:20 AM 50.0 °F - 32.0 °F 50% 29.62 in - SSE 3.5 mph - N/A   Clear
8:50 AM 50.0 °F - 30.2 °F 47% 29.62 in - South 4.6 mph - N/A   Clear
9:20 AM 51.8 °F - 32.0 °F 47% 29.62 in - SSE 5.8 mph - N/A   Clear
9:50 AM 51.8 °F - 32.0 °F 47% 29.62 in - South 6.9 mph - N/A   Clear
10:00 AM 52 °F - 32 °F 33% 29.63 in 9 mi South 6.7 mph - -   Mostly Cloudy
10:20 AM 53.6 °F - 30.2 °F 41% 29.62 in - South 5.8 mph - N/A   Clear
10:50 AM 53.6 °F - 32.0 °F 44% 29.62 in - South 5.8 mph - N/A   Clear
11:20 AM 55.4 °F - 30.2 °F 38% 29.59 in - South 5.8 mph - N/A   Clear
11:50 AM 55.4 °F - 30.2 °F 38% 29.59 in - South 6.9 mph - N/A   Clear
12:20 PM 57.2 °F - 28.4 °F 33% 29.59 in - SSE 6.9 mph - N/A   Clear
12:50 PM 59.0 °F - 28.4 °F 31% 29.59 in - South 5.8 mph - N/A   Clear
1:00 PM 58 °F - 28 °F 19% 29.60 in 11 mi South 4.5 mph - -   Partly Cloudy
1:20 PM 59.0 °F - 30.2 °F 34% 29.56 in - SSE 4.6 mph - N/A   Clear
1:50 PM 60.8 °F - 28.4 °F 29% 29.56 in - Variable 1.2 mph - N/A   Clear
2:20 PM 60.8 °F - 30.2 °F 31% 29.56 in - ENE 3.5 mph - N/A   Clear
2:50 PM 60.8 °F - 28.4 °F 29% 29.56 in - Variable 1.2 mph - N/A   Clear
3:20 PM 60.8 °F - 33.8 °F 36% 29.56 in - North 4.6 mph - N/A   Clear
3:50 PM 60.8 °F - 35.6 °F 39% 29.53 in - North 5.8 mph - N/A   Clear
4:00 PM 60 °F - 35 °F 28% 29.55 in 11 mi North 6.7 mph - -   Scattered Clouds
4:20 PM 59.0 °F - 37.4 °F 45% 29.53 in - North 5.8 mph - N/A   Clear
4:50 PM 59.0 °F - 39.2 °F 48% 29.53 in - NNE 5.8 mph - N/A   Clear
5:20 PM 57.2 °F - 39.2 °F 51% 29.53 in - NE 9.2 mph - N/A   Clear
5:50 PM 55.4 °F - 39.2 °F 54% 29.53 in - NE 6.9 mph - N/A   Clear
6:20 PM 55.4 °F - 37.4 °F 51% 29.53 in - NE 10.4 mph - N/A   Clear
6:50 PM 53.6 °F - 37.4 °F 54% 29.53 in - NE 8.1 mph - N/A   Clear
7:00 PM 53 °F - 37 °F 44% 29.55 in 9 mi NE 8.9 mph - -   Scattered Clouds
7:20 PM 51.8 °F - 37.4 °F 58% 29.53 in - NE 5.8 mph - N/A   Clear
7:50 PM 53.6 °F - 33.8 °F 47% 29.53 in - NNE 5.8 mph - N/A   Clear
8:20 PM 51.8 °F - 35.6 °F 54% 29.53 in - NE 4.6 mph - N/A   Clear
8:50 PM 51.8 °F - 35.6 °F 54% 29.53 in - ENE 5.8 mph - N/A   Clear
9:20 PM 50.0 °F - 35.6 °F 58% 29.53 in - ENE 5.8 mph - N/A   Clear
9:50 PM 51.8 °F - 35.6 °F 54% 29.53 in - East 4.6 mph - N/A   Clear
10:00 PM 51 °F - 35 °F 43% 29.54 in 9 mi East 4.5 mph - -   Mostly Cloudy
10:20 PM 50.0 °F - 35.6 °F 58% 29.53 in - East 4.6 mph - N/A   Clear
10:50 PM 48.2 °F - 35.6 °F 62% 29.50 in - East 4.6 mph - N/A   Clear
11:20 PM 46.4 °F 42.9 °F 37.4 °F 71% 29.50 in - East 6.9 mph - N/A   Clear
11:50 PM 50.0 °F - 35.6 °F 58% 29.50 in - East 4.6 mph - N/A   Clear